Weather History for Marathon, FL

Change the Weather History Date:

Saturday, August 24, 2013

  Actual Average Record
Temperature  
Mean Temperature 88 °F 85 °F  
Max Temperature 92 °F 91 °F 95 °F (1997)
Min Temperature 83 °F 79 °F 73 °F (2010)
Degree Days  
Heating Degree Days 0 0  
Month to date heating degree days 0 0  
Since 1 June heating degree days 0 0  
Since 1 July heating degree days 0 0  
Cooling Degree Days 23 20  
Month to date cooling degree days 530 492  
Year to date cooling degree days 3600 3249  
Since 1 June cooling degree days 1770 1706  
Growing Degree Days 38 (Base 50)    
Moisture  
Dew Point 74 °F    
Average Humidity 63    
Maximum Humidity 70    
Minimum Humidity 56    
Precipitation  
Precipitation 0.00 in 0.26 in 0.84 in (2012)
Month to date precipitation 1.10 5.07  
Year to date precipitation 38.15 26.90  
Snow  
Snow 0.00 in - - ()
Month to date snowfall 0.0  
Since 1 June snowfall 0.0  
Since 1 July snowfall 0.0  
Snow Depth 0.00 in    
Sea Level Pressure  
Sea Level Pressure 30.03 in    
Wind  
Wind Speed 6 mph (SE)    
Max Wind Speed 10 mph    
Max Gust Speed 15 mph    
Visibility 10 miles    
Events      
T = Trace of Precipitation, MM = Missing Value Source: NWS Daily Summary

Daily Weather History Graph

Daily Weather History Graph

Search for Another Location

Airport:

Trip Planner

Search our weather history database for the weather conditions in past years. The results will help you decide how hot, cold, wet, or windy it might be!

Date:

Astronomy

Aug. 24, 2013 Rise Set
Actual Time 7:02 AM EDT 7:50 PM EDT
Civil Twilight 6:38 AM EDT 8:13 PM EDT
Nautical Twilight 6:11 AM EDT 8:41 PM EDT
Astronomical Twilight 5:43 AM EDT 9:09 PM EDT
Moon 10:17 PM EDT (8/24) 10:29 AM EDT (8/24)
Length of Visible Light 13h 34m
Length of Day
12h 47m
Waning Gibbous, 84% of the Moon is Illuminated
Aug 24
Waning Gibbous
Aug 28
Last Quarter
Sep 5
New
Sep 12
First Quarter
Sep 19
Full

Hourly Weather History & Observations

Time (EDT) Temp. Heat Index Dew Point Humidity Pressure Visibility Wind Dir Wind Speed Gust Speed Precip Events Conditions
12:53 AM 84.0 °F 91.2 °F 73.9 °F 72% 30.01 in 10.0 mi ESE 6.9 mph - N/A   Partly Cloudy
1:53 AM 84.9 °F 92.1 °F 73.9 °F 69% 30.00 in 10.0 mi SE 9.2 mph - N/A   Scattered Clouds
2:53 AM 84.0 °F 90.2 °F 73.0 °F 69% 29.98 in 10.0 mi SE 6.9 mph - N/A   Clear
3:53 AM 84.0 °F 91.2 °F 73.9 °F 72% 29.97 in 10.0 mi ESE 5.8 mph - N/A   Partly Cloudy
4:53 AM 84.0 °F 91.2 °F 73.9 °F 72% 29.97 in 10.0 mi SSE 5.8 mph - N/A   Scattered Clouds
5:53 AM 84.0 °F 90.2 °F 73.0 °F 69% 29.99 in 10.0 mi Variable 5.8 mph - N/A   Clear
6:53 AM 84.0 °F 91.2 °F 73.9 °F 72% 30.01 in 10.0 mi SSE 8.1 mph - N/A   Partly Cloudy
7:53 AM 84.0 °F 90.2 °F 73.0 °F 69% 30.02 in 10.0 mi SSE 3.5 mph - N/A   Partly Cloudy
8:53 AM 86.0 °F 95.1 °F 75.0 °F 70% 30.03 in 10.0 mi Variable 4.6 mph - N/A   Clear
9:53 AM 88.0 °F 97.5 °F 75.0 °F 65% 30.05 in 10.0 mi SE 5.8 mph - N/A   Partly Cloudy
10:53 AM 89.1 °F 99.1 °F 75.0 °F 63% 30.06 in 10.0 mi Variable 4.6 mph - N/A   Clear
11:53 AM 90.0 °F 101.3 °F 75.9 °F 63% 30.06 in 10.0 mi ESE 5.8 mph - N/A   Partly Cloudy
12:53 PM 91.0 °F 101.6 °F 75.0 °F 59% 30.06 in 10.0 mi ESE 6.9 mph - N/A   Scattered Clouds
1:53 PM 90.0 °F 100.2 °F 75.0 °F 61% 30.06 in 10.0 mi SE 5.8 mph - N/A   Clear
2:53 PM 91.0 °F 101.6 °F 75.0 °F 59% 30.05 in 10.0 mi Variable 5.8 mph - N/A   Clear
3:53 PM 91.0 °F 100.4 °F 73.9 °F 57% 30.04 in 10.0 mi SE 8.1 mph - N/A   Clear
4:53 PM 90.0 °F 99.0 °F 73.9 °F 59% 30.01 in 10.0 mi ESE 5.8 mph - N/A   Clear
5:53 PM 88.0 °F 95.6 °F 73.0 °F 61% 30.02 in 10.0 mi ESE 5.8 mph - N/A   Clear
6:39 PM 87.8 °F 95.6 °F 73.4 °F 62% 30.03 in 10.0 mi Variable 6.9 mph - N/A   Partly Cloudy
6:53 PM 86.0 °F 93.0 °F 73.0 °F 65% 30.03 in 10.0 mi SE 6.9 mph - N/A   Partly Cloudy
7:53 PM 84.9 °F 91.4 °F 73.0 °F 67% 30.04 in 10.0 mi ESE 4.6 mph - N/A   Clear
8:53 PM 84.9 °F 91.4 °F 73.0 °F 67% 30.06 in 10.0 mi SE 5.8 mph - N/A   Clear
9:53 PM 84.0 °F 91.2 °F 73.9 °F 72% 30.07 in 10.0 mi Variable 4.6 mph - N/A   Clear
10:53 PM 84.9 °F 91.4 °F 73.0 °F 67% 30.07 in 10.0 mi ENE 6.9 mph - N/A   Clear
11:53 PM 84.0 °F 90.2 °F 73.0 °F 69% 30.08 in 10.0 mi East 6.9 mph - N/A   Clear